Other Public Products
Issued by NWS Grand Forks, ND

Home | Current Version | Previous Version | Graphics & Text | Print | Product List | Glossary On
Versions: 1 2 3 4 5 6 7 8 9 10 11 12 13 14 15 16 17 18 19 20 21 22 23 24 25 26 27 28 29 30 31 32 33 34 35 36 37 38 39 40 41 42 43 44 45 46 47 48 49 50
000
FPUS83 KFGF 261531
OPUFGF
PRAIRIE TO PINES WEATHER ROUNDUP
NATIONAL WEATHER SERVICE EASTERN NORTH DAKOTA/GRAND FORKS ND
1000 AM CDT TUE JUL 26 2016

 **SATELLITE DATA USED TO AUGMENT SKY COVER AT AUTOMATED STATIONS**
 *****  WEATHER ACROSS EASTERN NORTH DAKOTA  *****

CITY           SKY/WX    TMP DP  RH WIND       PRES   REMARKS
GRAND FORKS    CLOUDY    78  67  68 N3        29.97R
GRAND FORKS AF SUNNY     76  67  72 N5        29.99R
GRAND CITY NWS   N/A     79 N/A N/A N3          N/A
BUXTON           N/A     76  73  87 N7          N/A
DEVILS LAKE    SUNNY     76  66  71 CALM      30.04R
FARGO          CLOUDY    74  66  76 SW7       29.94S
WAHPETON ARPT  CLOUDY    72  64  78 CALM      29.97S
$$

 *****  WEATHER ACROSS CENTRAL AND WESTERN NORTH DAKOTA  *****

CITY           SKY/WX    TMP DP  RH WIND       PRES   REMARKS
JAMESTOWN      SUNNY     75  69  81 NE3       29.98F
BISMARCK       PTSUNNY   76  67  73 E12       29.97S
MINOT          CLOUDY    77  66  68 NW7       30.03F
MINOT AFB      CLOUDY    71  64  76 VRB3      30.02F
GARRISON         N/A     75  67  76 NE6       30.03R
WILLISTON      CLOUDY    69  61  75 N6        30.07S
DICKINSON      LGT RAIN  63  61  93 E14       30.05F FOG
HETTINGER      CLOUDY    65  60  84 NW7       30.08S
$$

 *****  OTHER OBSERVATIONS NORTHEAST NORTH DAKOTA  *****

CITY           SKY/WX    TMP DP  RH WIND       PRES   REMARKS
WALHALLA       FAIR      73  68  83 NW3       30.02R
LANGDON        PTSUNNY   81  68  65 CALM      30.04R
CAVALIER       FAIR      75  68  78 N5        30.00R
GRAFTON        FAIR      77  66  69 CALM      30.01R
CANDO          FAIR      77  68  73 CALM      30.05S
FORT TOTTEN      N/A     80  68  65 SE5       29.95S
ROLLA          PTSUNNY   70  64  83 NE5       30.06S
RUGBY          NOT AVBL
 ***** THE ABOVE OBSERVATIONS ARE NON NWS ARE NOT QUALITY
        CONTROLLED AND MAY MIS-REPORT RAIN FOR SNOW...
$$

 *****  OTHER OBSERVATIONS SOUTHEAST NORTH DAKOTA *****

CITY           SKY/WX    TMP DP  RH WIND       PRES   REMARKS
COOPERSTOWN    NOT AVBL
VALLEY CITY    FAIR      75  72  88 N8        30.00S
OAKES            N/A    N/A N/A N/A MISG        N/A
GWINNER        PTSUNNY   68  64  88 NW9       29.99R
SHEYENNE NWR     N/A     73  65  74 CALM      29.95
BUFFALO          N/A     73  66  80 CALM        N/A
WYNDMERE         N/A     75  66  73 S3          N/A
 ***** THE ABOVE OBSERVATIONS ARE NON NWS ARE NOT QUALITY
       CONTROLLED AND MAY MIS-REPORT RAIN FOR SNOW...
$$

  *****  WEATHER ACROSS NORTHERN MINNESOTA  *****

CITY           SKY/WX    TMP DP  RH WIND       PRES   REMARKS
FLAG ISLAND    SUNNY     75  54  46 NE9       29.98S
WARROAD        MOSUNNY   75  68  78 NE7       29.99S
ROSEAU         CLOUDY    77  68  73 NE3       29.98S
HALLOCK        SUNNY     75  68  78 N3        29.98S
THF RVR FALLS  CLOUDY    75  68  78 CALM      29.99S
HALSTAD          N/A     77  66  68 N5          N/A
FOSSTON        CLOUDY    75  73  94 E3        29.97F
BAUDETTE       CLOUDY    78  65  63 CALM      29.98S
WASKISH        CLOUDY    79  66  65 E7        29.98S
CROOKSTON      CLOUDY    75  70  83 N6        29.97S
$$
  *****  WEATHER ACROSS CENTRAL AND WEST MINNESOTA  *****

CITY           SKY/WX    TMP DP  RH WIND       PRES   REMARKS
BEMIDJI        PTSUNNY   73  64  73 SW5       29.99R
PARK RAPIDS    PTSUNNY   71  64  78 CALM      29.99F
WADENA         CLOUDY    73  66  78 SW5       29.98F
DETROIT LAKES  CLOUDY    72  63  73 CALM      29.99R
MOORHEAD       CLOUDY    72  66  83 CALM      29.94F
FERGUS FALLS   CLOUDY    77  66  69 SW13      29.99S
ELBOW LAKE     FAIR      76  68  77 S7        29.99F
MORRIS MN      MOSUNNY   81  66  61 SW6       29.99S
STAPLES        CLOUDY    75  64  69 SW5       29.99F
WHEATON        CLOUDY    81  70  69 S6        29.99F
$$
  *****  WEATHER ELSEWHERE ACROSS MINNESOTA  *****

CITY           SKY/WX    TMP DP  RH WIND       PRES   REMARKS
DULUTH         CLOUDY    77  66  68 W12       29.99S
INTRNTL FALLS  CLOUDY    77  64  64 CALM      29.98S
ELY            CLOUDY    75  64  69 CALM      29.98S
CLOQUET        MOSUNNY   79  64  61 W8        29.99F
BRAINERD       CLOUDY    72  65  78 CALM      30.01R
HIBBING        PTSUNNY   75  66  73 W8        29.98F
ALEXANDRIA     CLOUDY    75  64  68 SW8       30.03S
SAINT CLOUD    SUNNY     79  68  69 SW12      30.02F
MINNEAPOLIS    MOSUNNY   82  66  58 W10       30.05S
$$

  *****  WEATHER ACROSS SOUTH DAKOTA  *****

CITY           SKY/WX    TMP DP  RH WIND       PRES   REMARKS
SIOUX FALLS    MOSUNNY   78  65  63 SW13      30.07R
BROOKINGS      SUNNY     79  66  65 SW10      30.07R
WATERTOWN      SUNNY     79  64  60 SW12      30.06R
HURON          SUNNY     80  64  58 S10       30.02S
SISSETON         N/A     78  65  63 W15       29.97R
ABERDEEN       CLOUDY    68  64  87 SE10      30.00F THUNDER
MITCHELL       SUNNY     80  65  59 S8        30.05R
PIERRE         MOSUNNY   85  66  53 SW12      29.98R
MOBRIDGE       CLOUDY    81  66  60 SE12      29.94S
RAPID CITY     CLOUDY    69  57  65 MISG      30.06R
$$

  *****  SOME WEATHER IN NEARBY STATES *****

CITY           SKY/WX    TMP DP  RH WIND       PRES   REMARKS
GLASGOW MT     CLOUDY    73  60  63 E13       30.05S
GREAT FALLS MT SUNNY     70  52  52 VRB3      30.12R
CHEYENNE WY    MOSUNNY   79  42  26 SW7       30.20S
SCOTTSBLUFF NE MOSUNNY   74  58  57 SE9       30.07R
OMAHA NE       MOSUNNY   80  65  59 S8        30.08F
DES MOINES IA  MOSUNNY   82  65  56 E3        30.08F
DAVENPORT IA   SUNNY     79  66  64 SE5       30.08S
CHICAGO IL     MOSUNNY   82  62  50 E6        30.06S
EAU CLAIRE WI  MOSUNNY   79  67  66 W8        30.05S
LA CROSSE WI   SUNNY     79  68  69 CALM      30.07F
$$

  *****  SOME NATIONAL WEATHER *****

CITY           SKY/WX    TMP DP  RH WIND       PRES   REMARKS
LA GUARDIA NY  MOSUNNY   86  65  49 NW13      29.90S
RALEIGH NC     PTSUNNY   88  74  63 SW7       30.01F HX  96
ATLANTA GA     MOSUNNY   88  74  63 W6        30.09S HX  96
NEW ORLEANS LA PTSUNNY   85  75  72 NE10      29.94R HX  93
OKLAHOMA CITY  CLOUDY    77  72  84 S10       30.04R
ALBUQUERQUE NM CLOUDY    74  58  57 NW8       30.28S
SALT LAKE CITY MOSUNNY   86  43  22 S7        30.07R
LOS ANGELES CA MOSUNNY   68  64  88 W8        29.91R FOG
BOISE ID       SUNNY     76  37  24 SE5       30.00R
SEATTLE WA     CLOUDY    59  57  93 SW6       30.18R
$$

*** WEATHER ACROSS MANITOBA...SASKATCHEWAN AND ONTARIO ***
                ***ONTARIO***

CITY           SKY/WX    TMP DP  RH WIND       PRES   REMARKS
GERALDTON      MOSUNNY   73  57  56 W9        29.90S
THUNDER BAY    MOSUNNY   77  64  65 W3        29.92F
SIOUX LOOKOUT  MOSUNNY   73  55  53 NW9       29.97S
TORONTO        MOSUNNY   79  59  50 NW7       30.00S
BIG TROUT LK   NOT AVBL
PICKLE LAKE    MOSUNNY   72  54  53 W14G23    29.89F
DRYDEN         SUNNY     73  57  56 VRB5      29.99S
KENORA         PTSUNNY   75  54  46 NE6       30.00S
$$
                *** MANITOBA***

CITY           SKY/WX    TMP DP  RH WIND       PRES   REMARKS
BRANDON        PTSUNNY   73  59  60 E7        30.04R
DAUPHIN        SUNNY     68  59  73 N3        30.05S
ISLAND LAKE    CLOUDY    61  54  77 NW16G23   29.96R
PILOT MOUND      N/A     73  63  68 NE6         N/A
THE PAS        MOSUNNY   63  48  59 N8        30.10S
THOMPSON       CLOUDY    57  50  77 N10       30.03R
WINNIPEG       PTSUNNY   75  55  50 E6        30.00R
LYNN LAKE      SUNNY     59  45  58 MISG      30.11S
CHURCHILL      CLOUDY    48  46  93 N14       30.01R
GILLAM         CLOUDY    54  50  87 NE16G23   29.98R
$$
                ***SASKATCHEWAN***

CITY           SKY/WX    TMP DP  RH WIND       PRES   REMARKS
ESTEVAN        PTSUNNY   73  59  60 E8        30.09R
KINDERSLEY     LGT RAIN  63  55  77 CALM      30.12R
LLOYDMINSTER   MOSUNNY   68  54  60 S8        30.12R
PRINCE ALBERT  MOSUNNY   66  55  68 VRB2      30.13S
REGINA         MOSUNNY   72  54  53 SE6       30.11R
YORKTON        SUNNY     64  59  82 N3        30.09S  C1F1C2F2C3F3C4F4C5F5C6F6C7F7C8F8C9F9CaFaCbFbCcFcCdFdCe!



USA.gov is the U.S. government's official web portal to all federal, state and local government web resources and services.